HODOYOSHI 3

Satellite information

Favourite Embed

Satellite Type and Status

PAYLOADIN ORBIT

Key statistics

Satellite HODOYOSHI 3 at a glance.

Uptime

4147

Days in orbit

Revolutions

≈ 14.8

Per day

Orbit

SSO

Sun Synchronous Orbit

Inclination

97.6

Latest

Satellite identification and parameters

Extended collection of information and parameters for HODOYOSHI 3.

Object identification

Identified? True

Debris? False

Object name: HODOYOSHI 3

International designator: 2014-033F

Object number (NORAD): 40015

Object ID (CCSDS): 40015

Country: JAPAN (JPN)

Current information (Y/N): Y

RCS size: MEDIUM

Orbital parameters

Period: 96.999 minutes

Inclination: 97.6198 deg

SMA: 6993.111 km

Apoapsis: 638.999 km

Periapsis: 590.952 km

RAAN: 106.8979 deg

Eccentricy: 0.00343532

Argument of periapsis: 47.619 deg

Mean anomaly: 312.7924 deg

Mean motion: 14.84557951 rev/day

Mean motion (dot): 0.00002333 rev/day2

B* drag term: 0.00027979101 1/REarth

Two-line elements (TLE)

Creation date: Oct. 26, 2025, 2:54 a.m.

Reference frame: TEME

Reference center: EARTH

Epoch: Oct. 25, 2025, 11:22 p.m. UTC

TLE line 0: 0 HODOYOSHI 3

TLE line 1: 1 40015U 14033F 25298.97366477 .00002333 00000-0 27979-3 0 9994

TLE line 2: 2 40015 97.6198 106.8979 0034353 47.6190 312.7924 14.84557951612867

Live tracking on map

Real-time ground track for satellite HODOYOSHI 3.

In-orbit conjunctions

There are no conjunctions computed for HODOYOSHI 3, at the moment. Check back to stay up to date, as we update our databases every day.

Go to all conjunctions

Associated space launch

HODOYOSHI 3 was lifted into orbit during the mission ‘Dnepr 1 | Multipayload, 37 satellites.’, on board a Dnepr space rocket.

The launch took place on June 19, 2014, 7:11 p.m. from 370/13.

For more information about the launch, click the button.

Launch to space Dnepr 1 | Multipayload, 37 satellites.
Dnepr 1 | Multipayload, 37 satellites.

Agency: N/A

Status: Launch Successful

Launch date: June 19, 2014, 7:11 p.m. UTC

Rocket: Dnepr

Launch pad: 370/13

Location: Dombarovskiy, Russian Federation

...

Latest news about this satellite

There are no fresh news available about this satellite. Check back as we update our databases every day.


Newsletter sign-up

Weekly statistics, charts and insights to help you stay on top of the space industry.